Погода в Залесье

Россия / Калининградская область     54°50′37″N   21°31′03″E
темп.,
°C
ветер,
м/с
пор.,
м/с
влажн.,
%
обл.,
%
осадки,
мм/ч
давл.,
гПа
погр.,
м
17 апреля, сб
сб1723:00+9св41186100 0.0 1018408
02:00+6св310935 0.0 1019228
05:00+6св3996100 0.0 1019239
08:00+9всв3889100 0.0 1020373
11:00+10св358834 1.9 1020498
14:00+14всв346382 1.9 10201299
17:00+14св4667100 0.3 10201029
20:00+10всв37899 0.4 1021130
18 апреля, вс
вс1823:00+8всв25945 0.1 102198
02:00+7всв2595100 0.1 102297
05:00+6св389683 0.0 1021180
08:00+10всв488497 0.0 1021345
11:00+15всв466451 0.0 10211210
14:00+16всв465897 0.1 10201554
17:00+17всв466028 0.1 10201431
20:00+11св388012 0.2 1021157
19 апреля, пн
пн1923:00+9всв39845 0.0 1022172
02:00+7всв37875 0.0 1022124
05:00+6всв36875 0.0 1022103
08:00+10в34753 0.0 1022263
11:00+14всв45586 0.2 10221204
14:00+15всв5545100 0.3 10212138
17:00+13в676189 0.0 10211122
20:00+9всв387923 0.0 1021229
20 апреля, вт
вт2023:00+7в2482100 0.0 1021101
02:00+8всв2477100 0.0 1020112
05:00+8св2376100 0.0 101982
08:00+9ссв2477100 0.0 1019167
11:00+13св235290 0.2 10171514
14:00+12ссв335799 0.8 10161283
17:00+11ссз347199 0.9 1015597
20:00+8ссв228432 1.4 101436
21 апреля, ср
ср2123:00+6юв119019 0.0 101310
02:00+4зюз119270 0.0 101211
05:00+3з119453 0.1 101112
08:00+7зсз128394 0.4 1011229
11:00+11зсз345321 0.1 10101049
14:00+12зсз465352 0.1 10101564
17:00+11сз45545 0.1 10101216
20:00+6с228464 0.1 101012